Date String (YYYY-MM-DD hh:mm:ss) UTC,Instrument flags,Ambient pressure (hPa),Sample flow (lpm),Bypass flow (lpm),Sample temperature (°C),Ambient temperature (°C),ASC tube jacket temperature (°C),LED temperature (°C),Box temperature (°C),Sample RH (%),Span deviation,Mass concentration (μg/m³),Mass concentration (μg/m³),Mass concentration (μg/m³)
DateTimeUTC,F1_M11,P_M11,Q1_M11,Q2_M11,T1_M11,T2_M11,T3_M11,T4_M11,T5_M11,U1_M11,ZSPAN_M11,X0_M11,X2_M11,X1_M11
2022-12-14 05:00:00,,0812.4,5.00,0.00,22.1,20.7,00.0,31.0,23.9,10.0,0001.7,0024.13,0010.24,0007.67
2022-12-14 05:01:00,,0812.4,5.01,0.00,22.1,20.7,00.0,30.9,23.9,10.0,0001.2,0024.71,0010.19,0007.70
2022-12-14 05:02:00,,0812.4,5.01,0.00,22.1,20.6,00.0,30.9,23.9,10.0,0001.5,0025.38,0010.15,0007.70
2022-12-14 05:03:00,,0812.4,5.00,0.00,22.1,20.6,00.0,30.9,23.9,10.1,0001.7,0026.59,0010.14,0007.69
2022-12-14 05:04:00,,0812.4,4.98,0.00,22.1,20.6,00.0,30.9,23.9,10.1,0001.4,0026.69,0010.11,0007.65
2022-12-14 05:05:00,,0812.4,5.01,0.00,22.1,20.6,00.0,30.9,23.9,10.1,0001.4,0025.82,0010.00,0007.61
2022-12-14 05:06:00,,0812.4,5.01,0.00,22.1,20.6,00.0,30.9,23.9,10.1,0000.7,0025.32,0010.00,0007.59
2022-12-14 05:07:00,,0812.4,5.01,0.00,22.1,20.6,00.0,30.9,23.8,10.1,0000.5,0025.26,0010.01,0007.57
2022-12-14 05:08:00,,0812.4,4.97,0.00,22.1,21.1,00.0,30.9,24.0,10.1,0000.9,0025.67,0009.99,0007.54
2022-12-14 05:09:00,,0812.4,5.03,0.00,22.2,22.1,00.0,30.9,24.2,10.0,0000.9,0026.84,0009.92,0007.51
2022-12-14 05:10:00,,0812.5,4.97,0.00,22.3,22.4,00.0,31.0,24.3,10.0,0001.4,0026.96,0009.94,0007.51
2022-12-14 05:11:00,,0812.5,5.02,0.00,22.3,22.0,00.0,31.0,24.2,10.0,0001.5,0026.25,0009.84,0007.47
2022-12-14 05:12:00,,0812.5,4.98,0.00,22.3,21.7,00.0,31.0,24.2,10.1,0001.5,0026.48,0009.81,0007.45
2022-12-14 05:13:00,,0812.5,5.02,0.00,22.3,21.5,00.0,31.0,24.1,10.1,0000.6,0026.21,0009.80,0007.46
2022-12-14 05:14:00,,0812.6,5.01,0.00,22.3,21.3,00.0,31.0,24.1,10.1,0000.7,0025.18,0009.84,0007.49
2022-12-14 05:15:00,,0812.7,4.97,0.00,22.3,21.1,00.0,31.0,24.1,10.2,0001.4,0025.27,0009.90,0007.52
2022-12-14 05:16:00,,0812.6,5.01,0.00,22.3,21.0,00.0,31.0,24.1,10.3,0002.2,0025.55,0010.00,0007.53
2022-12-14 05:17:00,,0812.6,5.01,0.00,22.3,20.9,00.0,31.0,24.1,10.3,0002.1,0026.43,0010.03,0007.53
2022-12-14 05:18:00,,0812.7,5.01,0.00,22.2,20.8,00.0,31.0,24.0,10.4,0001.4,0026.61,0010.04,0007.52
2022-12-14 05:19:00,,0812.7,5.00,0.00,22.2,20.8,00.0,31.0,24.0,10.4,0000.5,0026.91,0010.03,0007.51
2022-12-14 05:20:00,,0812.6,4.99,0.00,22.2,20.7,00.0,31.0,24.0,10.3,0000.4,0028.02,0010.04,0007.51
2022-12-14 05:21:00,,0812.6,5.00,0.00,22.2,20.7,00.0,31.0,24.0,10.4,0000.5,0029.67,0010.07,0007.50
2022-12-14 05:22:00,,0812.7,5.00,0.00,22.2,20.6,00.0,31.0,24.0,10.4,0000.6,0030.83,0010.14,0007.51
2022-12-14 05:23:00,,0812.7,5.00,0.00,22.2,20.6,00.0,31.0,24.0,10.4,0001.2,0030.31,0010.20,0007.51
2022-12-14 05:24:00,,0812.7,4.99,0.00,22.2,20.6,00.0,31.0,23.9,10.5,0001.2,0030.41,0010.14,0007.50
2022-12-14 05:25:00,,0812.7,4.99,0.00,22.1,20.6,00.0,31.0,23.9,10.5,0000.9,0030.92,0010.09,0007.48
2022-12-14 05:26:00,,0812.6,4.99,0.00,22.1,20.6,00.0,31.0,23.9,10.5,0001.2,0030.86,0010.04,0007.49
2022-12-14 05:27:00,,0812.6,5.01,0.00,22.1,20.5,00.0,31.0,23.9,10.4,0000.6,0030.02,0009.95,0007.48
2022-12-14 05:28:00,,0812.7,4.99,0.00,22.1,20.5,00.0,31.0,23.9,10.5,0000.3,0030.18,0009.89,0007.48
2022-12-14 05:29:00,,0812.7,5.02,0.00,22.1,20.8,00.0,31.0,23.9,10.5,0000.8,0030.20,0009.88,0007.48
2022-12-14 05:30:00,,0812.7,4.98,0.00,22.2,21.7,00.0,31.0,24.1,10.4,0001.1,0030.55,0009.92,0007.48
2022-12-14 05:31:00,,0812.7,5.01,0.00,22.3,22.4,00.0,31.0,24.3,10.4,0001.2,0029.15,0009.92,0007.50
2022-12-14 05:32:00,,0812.7,5.03,0.00,22.3,22.1,00.0,31.0,24.3,10.4,0000.8,0027.50,0009.94,0007.51
2022-12-14 05:33:00,,0812.8,4.98,0.00,22.3,21.8,00.0,31.1,24.2,10.4,0001.2,0026.60,0009.95,0007.51
2022-12-14 05:34:00,,0812.7,4.98,0.00,22.3,21.5,00.0,31.1,24.2,10.4,0001.5,0026.03,0009.91,0007.49
2022-12-14 05:35:00,,0812.7,5.03,0.00,22.3,21.3,00.0,31.1,24.1,10.4,0001.5,0026.39,0009.99,0007.48
2022-12-14 05:36:00,,0812.7,4.97,0.00,22.3,21.2,00.0,31.1,24.1,10.4,0001.2,0026.76,0010.06,0007.47
2022-12-14 05:37:00,,0812.7,5.02,0.00,22.3,21.1,00.0,31.1,24.1,10.4,0001.2,0026.81,0010.11,0007.47
2022-12-14 05:38:00,,0812.7,4.98,0.00,22.3,21.0,00.0,31.1,24.1,10.4,0001.2,0027.37,0010.19,0007.47
2022-12-14 05:39:00,,0812.7,5.02,0.00,22.3,20.9,00.0,31.1,24.1,10.4,0001.7,0027.60,0010.20,0007.47
2022-12-14 05:40:00,,0812.7,5.01,0.00,22.3,20.9,00.0,31.1,24.1,10.5,0001.6,0027.71,0010.18,0007.47
2022-12-14 05:41:00,,0812.7,4.98,0.00,22.3,20.8,00.0,31.1,24.1,10.5,0001.7,0027.29,0010.11,0007.47
2022-12-14 05:42:00,,0812.7,5.02,0.00,22.3,20.8,00.0,31.1,24.0,10.5,0001.9,0026.87,0010.06,0007.46
2022-12-14 05:43:00,,0812.7,4.97,0.00,22.3,20.8,00.0,31.1,24.1,10.5,0001.7,0026.61,0010.08,0007.45
2022-12-14 05:44:00,,0812.8,5.02,0.00,22.2,20.8,00.0,31.1,24.0,10.5,0001.6,0026.37,0009.95,0007.45
2022-12-14 05:45:00,,0812.8,5.01,0.00,22.2,20.8,00.0,31.1,24.0,10.5,0000.6,0026.43,0009.96,0007.46
2022-12-14 05:46:00,,0812.7,4.98,0.00,22.2,20.8,00.0,31.1,24.0,10.5,0000.4,0026.06,0009.98,0007.47
2022-12-14 05:47:00,,0812.7,5.02,0.00,22.2,20.8,00.0,31.1,24.0,10.6,0000.9,0024.98,0009.94,0007.49
2022-12-14 05:48:00,,0812.7,4.98,0.00,22.2,20.8,00.0,31.1,24.0,10.6,0000.5,0024.86,0009.90,0007.51
2022-12-14 05:49:00,,0812.7,5.02,0.00,22.2,20.7,00.0,31.1,24.0,10.7,0000.7,0024.91,0009.94,0007.54
2022-12-14 05:50:00,,0812.7,4.97,0.00,22.2,20.7,00.0,31.1,24.0,10.7,0000.7,0025.23,0010.02,0007.56
2022-12-14 05:51:00,,0812.7,5.02,0.00,22.2,20.7,00.0,31.1,24.0,10.7,0001.1,0025.46,0010.04,0007.57
2022-12-14 05:52:00,,0812.7,4.97,0.00,22.2,21.4,00.0,31.0,24.1,10.7,0001.5,0025.72,0010.13,0007.59
2022-12-14 05:53:00,,0812.8,5.03,0.00,22.3,22.2,00.0,31.1,24.3,10.7,0001.8,0025.81,0010.24,0007.61
2022-12-14 05:54:00,,0812.8,4.99,0.00,22.4,22.2,00.0,31.1,24.3,10.7,0002.1,0025.77,0010.20,0007.61
2022-12-14 05:55:00,,0812.8,4.98,0.00,22.4,21.9,00.0,31.1,24.3,10.7,0002.2,0026.54,0010.25,0007.62
2022-12-14 05:56:00,,0812.8,5.02,0.00,22.4,21.6,00.0,31.1,24.2,10.7,0002.4,0026.37,0010.30,0007.63
2022-12-14 05:57:00,,0812.8,5.01,0.00,22.3,21.4,00.0,31.1,24.2,10.7,0002.8,0025.38,0010.27,0007.66
2022-12-14 05:58:00,,0812.8,4.98,0.00,22.3,21.2,00.0,31.1,24.2,10.7,0002.7,0026.46,0010.31,0007.67
2022-12-14 05:59:00,,0812.8,5.01,0.00,22.3,21.1,00.0,31.1,24.1,10.7,0002.9,0026.56,0010.32,0007.67
